Printer-friendly version

IAU Minor Planet Center

Minor Planet Center

MPEC 2004-L49 : 2004 LJ1

The following Minor Planet Electronic Circular may be linked-to from your own Web pages, but must not otherwise be redistributed electronically.


Read MPEC 2004-L48 Read MPEC 2004-L50


M.P.E.C. 2004-L49                                Issued 2004 June 13, 12:19 UT

     The Minor Planet Electronic Circulars contain information on unusual
         minor planets and routine data on comets.  They are published
   on behalf of Commission 20 of the International Astronomical Union by the
          Minor Planet Center, Smithsonian Astrophysical Observatory,
                          Cambridge, MA 02138, U.S.A.

         Supported in part by the Steven and Michele Kirsch Foundation
             Prepared using the Tamkin Foundation Computer Network

                              MPC@CFA.HARVARD.EDU
          URL http://cfa-www.harvard.edu/iau/mpc.html  ISSN 1523-6714

                                   2004 LJ1

                           Revision to MPEC 2004-L31

Additional Observations:
     K04L01J 1 1995 02 03.56854 09 30 28.74 -24 34 03.8                 EL049260
     K04L01J 1 1995 02 03.62410 09 30 23.93 -24 33 49.1                 EL049260
     K04L01J IC2002 01 12.56328 10 58 19.59 -25 00 36.6                 EL049644

Observer details:
260 Siding Spring-DSS.  Measurer R. Stoss.  1.2-m U.K. Schmidt.
644 Palomar Mountain/NEAT.  Measurer R. Stoss.  1.2-m Oschin Schmidt + CCD.

Orbital elements:
2004 LJ1                                                             PHA 0.008D
Epoch 2004 July 14.0 TT = JDT 2453200.5                 MPC
M 339.00242              (2000.0)            P               Q
n   0.28941803     Peri.  139.51322     +0.92098041     -0.21630102
a   2.2635269      Node   235.94291     +0.17006904     +0.97150035
e   0.5945454      Incl.   23.02539     +0.35053045     +0.09695842
P   3.41           H   15.2           G   0.15           U   3
Residuals in seconds of arc
950203 260  0.6+  0.3+    040610 704  0.9-  0.5+    040611 A50  0.5+  0.1+
950203 260  0.6-  0.5-    040611 704  0.4+  0.4+    040611 620  0.3-  0.4-
020112 644  0.0   0.0     040611 704  0.0   0.2-    040612 941  0.4-  0.4-
040423 704  0.6-  0.5-    040611 704  0.0   0.1+    040612 941  0.8-  0.9+
040423 704  0.7+  0.8-    040611 704  1.0+  0.3+    040612 941  0.7-  0.5+
040423 704  0.2+  0.6-    040611 704  0.2+  0.0     040612 941  0.4-  1.0+
040423 704  0.1-  0.1-    040611 J87  1.1-  0.3-    040612 704  0.3+  0.5-
040429 704  0.0   0.6+    040611 J87  0.0   0.1-    040612 704  0.6+  0.2-
040429 704  0.0   0.1+    040611 J87  0.4-  0.2-    040612 704  0.4+  0.4-
040429 704  0.7+  0.1-    040611 J87  0.1-  0.3-    040612 704  0.0   0.5+
040429 704  0.3+  0.4+    040611 J87  0.2-  0.0     040612 704  1.7+  0.7-
040514 704  0.5-  0.3+    040611 620  0.2-  0.3-    040612 704  1.1+  0.1-
040514 704  0.9-  0.5-    040611 620  0.1-  0.4-    040612 704  1.0+  0.5+
040514 704  0.4-  0.3+    040611 A50  0.4+  0.3+    040612 704  0.4+  0.4-
040514 704  0.3-  0.1+    040611 620  0.3-  0.5-    040613 941  1.0-  0.1-
040514 704  0.7-  1.1+    040611 A50  0.4+  0.2+    040613 941  0.7-  0.7-
040610 704  0.1+  0.0     040611 A50  0.4+  0.3+    040613 941  0.1-  0.4-
040610 704  0.0   0.5+    040611 A50  0.4+  0.1+    040613 941  0.4+  0.2-
040610 704  0.3-  0.2+    040611 620  0.2-  0.2-

Ephemeris:
2004 LJ1                 a,e,i = 2.26, 0.59, 23                  q = 0.9178
Date    TT    R. A. (2000) Decl.     Delta      r     Elong.  Phase     V
2004 06 14    19 42.60   +15 26.9    0.710    1.567   129.6    30.0    16.7
2004 06 24    19 40.75   +23 39.3    0.620    1.483   128.2    32.6    16.4
2004 07 04    19 34.72   +32 48.3    0.551    1.398   123.5    37.3    16.1
2004 07 14    19 23.61   +42 27.7    0.501    1.314   115.8    44.1    16.0
2004 07 24    19 06.09   +52 02.6    0.466    1.233   106.6    52.2    15.9
2004 08 03    18 39.48   +61 08.2    0.442    1.155    96.9    60.7    15.9
2004 08 13    17 54.92   +69 32.5    0.423    1.082    87.8    69.3    15.9
2004 08 23    16 21.33   +76 38.9    0.406    1.019    79.6    77.3    16.0
2004 09 02    13 02.62   +78 44.8    0.390    0.969    72.9    84.5    16.0
2004 09 12    10 28.55   +71 46.4    0.377    0.934    68.1    89.9    16.1
2004 09 22    09 31.26   +60 06.7    0.370    0.918    66.1    92.3    16.1
2004 10 02    09 09.70   +46 44.4    0.373    0.924    67.3    90.8    16.1
2004 10 12    09 01.76   +33 14.9    0.387    0.949    71.5    85.8    16.0
2004 10 22    08 58.88   +20 42.0    0.409    0.992    77.6    78.6    16.0
2004 11 01    08 56.83   +09 34.9    0.437    1.049    85.0    70.5    16.0
2004 11 11    08 53.04   +00 00.2    0.467    1.117    93.0    62.3    16.0
2004 11 21    08 45.71   -08 02.8    0.500    1.192   101.4    54.3    16.1
2004 12 01    08 33.92   -14 32.0    0.535    1.272   109.9    46.8    16.1
2004 12 11    08 17.65   -19 21.3    0.576    1.355   118.2    39.8    16.2
2004 12 21    07 58.09   -22 22.9    0.624    1.439   125.6    33.8    16.4
2004 12 31    07 37.67   -23 37.5    0.684    1.524   131.3    29.0    16.6
2005 01 10    07 19.05   -23 18.4    0.756    1.608   134.7    25.8    16.8
2005 01 20    07 04.37   -21 48.6    0.844    1.691   135.2    24.2    17.1
2005 01 30    06 54.59   -19 35.9    0.947    1.772   133.1    23.9    17.4
2005 02 09    06 49.66   -17 03.6    1.064    1.852   129.1    24.4    17.8
2005 02 19    06 49.05   -14 28.7    1.196    1.931   124.0    25.1    18.2
2005 03 01    06 52.03   -12 02.3    1.339    2.007   118.2    25.8    18.5
2005 03 11    06 57.86   -09 50.3    1.492    2.081   112.1    26.2    18.9
2005 03 21    07 05.94   -07 55.5    1.654    2.153   106.0    26.4    19.2
2005 03 31    07 15.76   -06 19.3    1.823    2.223    99.8    26.3    19.4
2005 04 10    07 26.90   -05 01.1    1.996    2.292    93.8    25.9    19.7
2005 04 20    07 39.04   -04 00.4    2.172    2.358    87.8    25.2    19.9
2005 04 30    07 51.90   -03 16.2    2.350    2.422    81.9    24.3    20.1
2005 05 10    08 05.30   -02 47.2    2.526    2.484    76.0    23.2    20.3
2005 05 20    08 19.06   -02 32.2    2.700    2.544    70.3    22.0    20.4
2005 05 30    08 33.05   -02 30.0    2.870    2.602    64.6    20.6    20.6

Timothy B. Spahr             (C) Copyright 2004 MPC           M.P.E.C. 2004-L49

Read MPEC 2004-L48 Read MPEC 2004-L50


Our Web policy. Index to the CBAT/MPC/ICQ pages.


Valid HTML 4.01!